CW2157 Weather Reports


time (UTC)temp
F
wind
direction
speed
knots
gust
knots
rain 1hr
in
rain 24hr
in
rain mn
in
humidity
%
barometer
mb
20260902184204 76 88 6.1 10.4 0.09 0.09 0.09 87 1017.2
20260902183704 76 84 6.1 10.4 0.09 0.09 0.09 88 1016.9
20260902183204 76 40 2.6 5.2 0.09 0.09 0.09 86 1017.2
20260902182704 76 17 2.6 4.3 0.09 0.09 0.09 86 1017.1
20260902181704 77 293 3.5 6.1 0.09 0.09 0.09 83 1017.7
20260902180704 79 323 4.3 11.3 0.07 0.07 0.07 78 1018.5
20260902180204 81 344 8.7 25.2 0.03 0.03 0.03 71 1019.0
20260902175704 84 341 10.4 19.1 0.00 0.00 0.00 68 1018.8
20260902175205 86 1 5.2 10.4 0.00 0.00 0.00 72 1018.5
20260902174704 87 341 1.7 5.2 0.00 0.00 0.00 72 1017.8
20260902174204 87 308 0.0 1.7 0.00 0.00 0.00 74 1017.5
20260902173704 87 65 2.6 2.6 0.00 0.00 0.00 72 1017.5
20260902173204 87 27 4.3 6.1 0.00 0.00 0.00 73 1017.2
20260902172704 87 71 0.9 2.6 0.00 0.00 0.00 73 1017.2
20260902172204 87 100 1.7 4.3 0.00 0.00 0.00 73 1017.2
20260902170704 87 56 2.6 4.3 0.00 0.00 0.00 72 1016.9
20260902170205 87 59 1.7 4.3 0.00 0.00 0.00 71 1016.9
20260902165704 87 237 1.7 7.0 0.00 0.00 0.00 72 1016.9
20260902165204 87 27 3.5 5.2 0.00 0.00 0.00 71 1016.8
20260902164704 87 152 2.6 5.2 0.00 0.00 0.00 75 1016.7
20260902164204 87 116 3.5 7.0 0.00 0.00 0.00 75 1016.7
20260902163704 86 55 2.6 7.0 0.00 0.00 0.00 72 1016.7
20260902163204 86 105 2.6 7.0 0.00 0.00 0.00 74 1016.7
20260902162705 86 139 2.6 6.1 0.00 0.00 0.00 74 1016.7
20260902161704 86 72 6.1 10.4 0.00 0.00 0.00 74 1016.7
20260902160704 86 103 2.6 8.7 0.00 0.00 0.00 74 1016.7
20260902160204 86 62 5.2 8.7 0.00 0.00 0.00 74 1016.8
20260902155704 85 2 0.9 4.3 0.00 0.00 0.00 74 1016.9
20260902155204 85 11 4.3 10.4 0.00 0.00 0.00 74 1017.0
20260902154705 85 80 5.2 10.4 0.00 0.00 0.00 76 1016.9
20260902154204 85 26 4.3 10.4 0.00 0.00 0.00 73 1016.9
20260902153704 85 102 2.6 6.1 0.00 0.00 0.00 75 1016.8
20260902153205 85 106 5.2 7.8 0.00 0.00 0.00 76 1016.9
20260902152204 84 39 3.5 10.4 0.00 0.00 0.00 76 1017.0
20260902151704 84 49 6.1 10.4 0.00 0.00 0.00 77 1016.9
20260902151204 84 110 4.3 8.7 0.00 0.00 0.00 77 1016.9
20260902150205 83 101 4.3 8.7 0.00 0.00 0.00 78 1016.9
20260902145704 83 92 7.8 10.4 0.00 0.00 0.00 77 1016.9
20260902145204 83 81 7.8 10.4 0.00 0.00 0.00 78 1016.8
20260902144704 83 76 5.2 11.3 0.00 0.00 0.00 78 1016.7
20260902144204 82 109 4.3 10.4 0.00 0.00 0.00 79 1016.7
20260902143704 82 123 6.1 10.4 0.00 0.00 0.00 80 1016.6
20260902143205 82 71 7.8 11.3 0.00 0.00 0.00 80 1016.7
20260902142705 82 86 6.1 10.4 0.00 0.00 0.00 79 1016.7
20260902141204 81 55 5.2 7.8 0.00 0.00 0.00 80 1016.9
20260902140704 81 94 5.2 8.7 0.00 0.00 0.00 80 1016.9
20260902140204 81 87 7.0 10.4 0.00 0.00 0.00 82 1017.0
20260902135704 80 80 6.1 7.8 0.00 0.00 0.00 80 1017.0
20260902135204 80 46 2.6 7.8 0.00 0.00 0.00 82 1017.0
20260902134704 80 80 5.2 10.4 0.00 0.00 0.00 84 1017.0
20260902134204 79 58 7.0 10.4 0.00 0.00 0.00 84 1016.8
20260902133704 79 51 5.2 7.8 0.00 0.00 0.00 83 1016.7
20260902132704 79 74 6.1 10.4 0.00 0.00 0.00 83 1016.5
20260902131704 79 67 7.0 11.3 0.00 0.00 0.00 83 1016.4
20260902131204 79 87 7.8 13.0 0.00 0.00 0.00 85 1016.4
20260902130704 79 83 8.7 11.3 0.00 0.00 0.00 83 1016.4
20260902130204 79 85 8.7 12.2 0.00 0.00 0.00 84 1016.4
20260902125704 78 73 10.4 12.2 0.00 0.00 0.00 85 1016.4
20260902124704 78 57 7.8 10.4 0.00 0.00 0.00 85 1016.4
20260902124204 78 73 7.8 11.3 0.00 0.00 0.00 86 1016.3
20260902123704 77 73 4.3 10.4 0.00 0.00 0.00 85 1016.3
20260902123204 77 72 6.1 10.4 0.00 0.00 0.00 85 1016.3
20260902122704 77 73 7.0 11.3 0.00 0.00 0.00 85 1016.3
20260902122204 77 58 4.3 8.7 0.00 0.00 0.00 87 1016.3
20260902121704 76 68 4.3 7.0 0.00 0.00 0.00 87 1016.3
20260902121204 76 58 5.2 8.7 0.00 0.00 0.00 87 1016.3
20260902120705 76 72 5.2 10.4 0.00 0.00 0.00 87 1016.3
20260902120204 76 58 7.8 10.4 0.00 0.00 0.00 88 1016.3
20260902115203 76 65 7.0 10.4 0.00 0.00 0.00 88 1016.4
20260902114704 75 58 7.8 8.7 0.00 0.00 0.00 89 1016.3
20260902114204 75 72 7.0 10.4 0.00 0.00 0.00 91 1016.2
20260902113704 75 83 5.2 7.8 0.00 0.00 0.00 91 1016.2
20260902112704 74 68 6.1 8.7 0.00 0.00 0.00 92 1016.2
20260902112204 74 67 4.3 8.7 0.00 0.00 0.00 92 1016.1
20260902111704 74 71 5.2 7.8 0.00 0.00 0.00 92 1016.0
20260902111204 74 62 3.5 7.0 0.00 0.00 0.00 92 1016.0
20260902110704 74 50 1.7 4.3 0.00 0.00 0.00 92 1016.0
20260902105704 73 58 0.9 2.6 0.00 0.00 0.00 91 1015.8
20260902105204 73 28 1.7 2.6 0.00 0.00 0.00 91 1015.8
20260902104704 73 20 1.7 4.3 0.00 0.00 0.00 91 1015.6
20260902103704 73 67 1.7 2.6 0.00 0.00 0.00 90 1015.6
20260902103204 73 78 1.7 2.6 0.00 0.00 0.00 90 1015.4
20260902100704 73 24 0.0 0.0 0.00 0.00 0.00 90 1015.5
20260902100204 73 24 0.9 0.9 0.00 0.00 0.00 90 1015.6
20260902095704 73 24 0.0 0.9 0.00 0.00 0.00 90 1015.5
20260902095204 73 24 0.9 1.7 0.00 0.00 0.00 90 1015.5
20260902094705 73 24 0.0 1.7 0.00 0.00 0.00 89 1015.4
20260902094205 73 24 0.0 0.0 0.00 0.00 0.00 89 1015.3
20260902093706 73 24 0.0 1.7 0.00 0.00 0.00 89 1015.3
20260902093206 73 24 0.9 1.7 0.00 0.00 0.00 89 1015.4
20260902092206 73 337 0.0 0.9 0.00 0.00 0.00 88 1015.4
20260902091706 74 325 0.0 0.9 0.00 0.00 0.00 88 1015.4
20260902091205 74 334 0.0 0.9 0.00 0.00 0.00 88 1015.3
20260902090705 74 334 0.0 1.7 0.00 0.00 0.00 87 1015.4
20260902090206 74 349 0.0 0.0 0.00 0.00 0.00 87 1015.6
20260902085705 74 10 0.0 0.9 0.00 0.00 0.00 87 1015.4
20260902085206 74 10 0.9 1.7 0.00 0.00 0.00 87 1015.4
20260902084706 74 10 0.0 0.9 0.00 0.00 0.00 87 1015.4
20260902084205 74 10 0.0 1.7 0.00 0.00 0.00 86 1015.3
20260902083706 75 10 0.9 1.7 0.00 0.00 0.00 86 1015.3
20260902083205 75 88 0.9 0.9 0.00 0.00 0.00 86 1015.4
20260902082205 75 131 0.0 1.7 0.00 0.00 0.00 86 1015.3
20260902081705 75 131 0.9 1.7 0.00 0.00 0.00 85 1015.1
20260902080705 75 86 1.7 2.6 0.00 0.00 0.00 85 1015.1
20260902080206 75 60 0.9 2.6 0.00 0.00 0.00 86 1015.1
20260902075706 75 91 0.0 1.7 0.00 0.00 0.00 86 1015.1
20260902075205 76 114 0.9 2.6 0.00 0.00 0.00 85 1015.0
20260902074705 76 105 0.9 2.6 0.00 0.00 0.00 85 1015.0
20260902074206 76 105 0.9 1.7 0.00 0.00 0.00 85 1015.0
20260902073705 76 105 0.9 2.6 0.00 0.00 0.00 86 1014.9
20260902073205 76 105 0.9 2.6 0.00 0.00 0.00 85 1014.8
20260902072705 76 100 1.7 2.6 0.00 0.00 0.00 85 1014.9
20260902072206 76 96 0.9 2.6 0.00 0.00 0.00 85 1014.9
20260902071705 76 101 1.7 2.6 0.00 0.00 0.00 85 1014.8
20260902071206 76 108 1.7 2.6 0.00 0.00 0.00 84 1014.6
20260902070706 76 141 1.7 2.6 0.00 0.00 0.00 85 1014.7
20260902070206 76 120 0.9 2.6 0.00 0.00 0.00 85 1014.7
20260902065705 76 92 1.7 4.3 0.00 0.00 0.00 85 1014.6
20260902064705 76 111 1.7 5.2 0.00 0.00 0.00 85 1014.6
20260902064205 76 96 2.6 6.1 0.00 0.00 0.00 85 1014.6
20260902063705 77 82 1.7 5.2 0.00 0.00 0.00 84 1014.7
20260902063205 77 86 3.5 10.4 0.00 0.00 0.00 84 1014.8
20260902062705 77 98 2.6 7.8 0.00 0.00 0.00 83 1014.7
20260902061705 77 67 5.2 8.7 0.00 0.00 0.00 83 1015.0
20260902060705 77 33 4.3 7.8 0.00 0.00 0.00 82 1015.3
20260902055205 78 107 4.3 11.3 0.00 0.00 0.00 82 1014.8
20260902054706 78 79 2.6 11.3 0.00 0.00 0.00 80 1014.6
20260902054206 78 67 8.7 12.2 0.00 0.00 0.00 81 1014.9
20260902053706 78 109 6.1 12.2 0.00 0.00 0.00 80 1014.5
20260902052705 79 188 0.0 0.9 0.00 0.00 0.00 80 1014.1
20260902051705 79 202 0.9 1.7 0.00 0.00 0.00 79 1014.1
20260902051205 79 122 0.9 1.7 0.00 0.00 0.00 80 1014.2
20260902045705 79 149 0.9 2.6 0.00 0.00 0.00 81 1014.2
20260902045205 80 118 0.9 2.6 0.00 0.00 0.00 81 1014.2
20260902044705 80 87 1.7 2.6 0.00 0.00 0.00 81 1014.4
20260902043705 80 66 2.6 4.3 0.00 0.00 0.00 80 1014.3
20260902042705 80 93 2.6 8.7 0.00 0.00 0.00 82 1014.5
20260902042206 80 94 4.3 8.7 0.00 0.00 0.00 80 1014.4
20260902041705 81 91 6.1 10.4 0.00 0.00 0.00 84 1014.6
20260902041206 81 80 3.5 5.2 0.00 0.00 0.00 85 1014.5
20260902040705 81 75 2.6 6.1 0.00 0.00 0.00 85 1014.4
20260902040205 81 81 2.6 4.3 0.00 0.00 0.00 86 1014.5
20260902035705 81 67 2.6 4.3 0.00 0.00 0.00 86 1014.4
20260902035206 81 127 1.7 2.6 0.00 0.00 0.00 86 1014.3
20260902034705 81 318 0.9 1.7 0.00 0.00 0.00 86 1014.2
20260902034206 81 317 0.9 2.6 0.00 0.00 0.00 86 1014.1
20260902033705 81 39 0.9 8.7 0.00 0.00 0.00 87 1014.1
20260902033205 81 65 6.1 8.7 0.00 0.00 0.00 89 1013.9
20260902032206 81 88 0.0 1.7 0.00 0.00 0.00 88 1013.6
20260902031705 81 142 0.9 1.7 0.00 0.00 0.00 88 1013.6
20260902031206 81 142 0.9 1.7 0.00 0.00 0.00 88 1013.6
20260902030206 81 122 0.0 0.9 0.00 0.00 0.00 87 1013.5
20260902025706 81 122 0.0 0.9 0.00 0.00 0.00 87 1013.5
20260902024205 81 268 0.0 0.9 0.00 0.00 0.00 86 1013.2
20260902023705 82 268 0.0 1.7 0.00 0.00 0.00 87 1013.2
20260902023205 82 268 0.0 1.7 0.00 0.00 0.00 87 1013.1
20260902022705 82 228 1.7 2.6 0.00 0.00 0.00 87 1013.2
20260902021705 82 164 0.9 1.7 0.00 0.00 0.00 86 1013.2
20260902021206 82 139 0.9 1.7 0.00 0.00 0.00 86 1013.3
20260902020705 82 192 2.6 4.3 0.00 0.00 0.00 86 1013.3
20260902015705 82 237 5.2 6.1 0.00 0.00 0.00 86 1012.9
20260902015205 82 234 4.3 8.7 0.00 0.00 0.00 86 1012.9
20260902014705 82 240 6.1 10.4 0.00 0.00 0.00 86 1012.8
20260902013705 82 225 7.0 10.4 0.00 0.00 0.00 85 1012.6
20260902013205 82 217 7.8 11.3 0.00 0.00 0.00 85 1012.5
20260902012705 82 209 7.8 10.4 0.00 0.00 0.00 84 1012.5
20260902012205 82 219 7.8 10.4 0.00 0.00 0.00 84 1012.5
20260902011705 82 214 7.0 7.8 0.00 0.00 0.00 83 1012.5
20260902011205 82 217 6.1 7.8 0.00 0.00 0.00 83 1012.6
20260902010705 82 214 6.1 8.7 0.00 0.00 0.00 83 1012.7
20260902010205 82 223 6.1 8.7 0.00 0.00 0.00 83 1012.7
20260902005705 82 227 7.0 10.4 0.00 0.00 0.00 82 1012.6
20260902005205 82 216 7.8 10.4 0.00 0.00 0.00 82 1012.6
20260902004705 82 219 7.8 10.4 0.00 0.00 0.00 82 1012.3
20260902004205 82 227 7.8 10.4 0.00 0.00 0.00 82 1012.3
20260902003705 83 225 7.8 10.4 0.00 0.00 0.00 82 1012.2
20260902003205 83 222 7.8 10.4 0.00 0.00 0.00 81 1011.9
20260902002706 83 221 7.8 8.7 0.00 0.00 0.00 81 1011.7
20260902002205 83 221 7.8 10.4 0.00 0.00 0.00 81 1011.3
20260902001705 83 221 8.7 10.4 0.00 0.00 0.00 80 1011.2
20260902001205 83 216 8.7 10.4 0.00 0.00 0.00 80 1011.2
20260902000705 83 220 8.7 10.4 0.00 0.00 0.00 79 1011.4
20260902000205 84 212 7.8 10.4 0.00 0.00 0.00 78 1011.6
20260901234705 84 232 5.2 7.8 0.00 0.00 0.00 78 1011.8
20260901234205 85 224 6.1 7.8 0.00 0.00 0.00 77 1011.8
20260901233705 85 219 6.1 10.4 0.00 0.00 0.00 77 1011.8
20260901233205 85 216 7.0 8.7 0.00 0.00 0.00 77 1011.8
20260901232705 85 211 6.1 8.7 0.00 0.00 0.00 76 1011.7
20260901232205 86 211 5.2 8.7 0.00 0.00 0.00 76 1011.9
20260901231704 86 208 6.1 7.8 0.00 0.00 0.00 76 1011.9
20260901230705 86 205 5.2 7.0 0.00 0.00 0.00 75 1012.1
20260901230205 87 211 5.2 8.7 0.00 0.00 0.00 75 1012.0
20260901225705 87 200 5.2 7.0 0.00 0.00 0.00 75 1012.1
20260901225205 87 203 6.1 8.7 0.00 0.00 0.00 74 1012.1
20260901224705 87 198 7.0 8.7 0.00 0.00 0.00 74 1012.1
20260901224205 87 204 7.0 10.4 0.00 0.00 0.00 73 1012.0
20260901223205 88 197 6.1 10.4 0.00 0.00 0.00 74 1012.0
20260901222705 88 207 7.8 10.4 0.00 0.00 0.00 73 1012.1
20260901222205 88 201 7.8 11.3 0.00 0.00 0.00 72 1012.0
20260901221705 88 198 6.1 10.4 0.00 0.00 0.00 72 1012.0
20260901221205 88 210 7.0 10.4 0.00 0.00 0.00 72 1012.2
20260901220206 89 207 7.0 10.4 0.00 0.00 0.00 71 1012.3
20260901215705 89 195 6.1 10.4 0.00 0.00 0.00 70 1012.2
20260901215205 89 187 6.1 8.7 0.00 0.00 0.00 69 1012.2
20260901214705 89 197 6.1 10.4 0.00 0.00 0.00 69 1012.3
20260901214205 90 193 5.2 7.8 0.00 0.00 0.00 69 1012.5
20260901213705 90 192 6.1 8.7 0.00 0.00 0.00 69 1012.5
20260901213205 90 197 6.1 10.4 0.00 0.00 0.00 67 1012.4
20260901212705 91 200 6.1 8.7 0.00 0.00 0.00 66 1012.4
20260901212205 91 189 6.1 10.4 0.00 0.00 0.00 67 1012.5
20260901211205 92 192 7.8 10.4 0.00 0.00 0.00 65 1012.6
20260901210705 92 198 5.2 8.7 0.00 0.00 0.00 64 1012.6
20260901210205 93 195 6.1 10.4 0.00 0.00 0.00 63 1012.6
20260901205705 93 193 7.0 10.4 0.00 0.00 0.00 63 1012.7
20260901205206 93 188 6.1 8.7 0.00 0.00 0.00 63 1012.7
20260901204705 94 196 6.1 8.7 0.00 0.00 0.00 65 1012.7
20260901204205 93 181 6.1 10.4 0.00 0.00 0.00 65 1012.7
20260901203205 93 196 4.3 7.8 0.00 0.00 0.00 66 1012.7
20260901202705 93 205 5.2 7.8 0.00 0.00 0.00 67 1012.7
20260901201705 93 204 6.1 7.8 0.00 0.00 0.00 67 1012.9
20260901201205 92 201 5.2 7.0 0.00 0.00 0.00 67 1012.9
20260901200705 93 209 5.2 10.4 0.00 0.00 0.00 67 1012.9
20260901200205 93 188 5.2 8.7 0.00 0.00 0.00 64 1012.9
20260901195704 93 198 6.1 8.7 0.00 0.00 0.00 65 1013.0
20260901195205 93 184 5.2 7.8 0.00 0.00 0.00 64 1013.1
20260901194705 93 208 5.2 7.8 0.00 0.00 0.00 67 1013.2
20260901193705 93 201 4.3 5.2 0.00 0.00 0.00 66 1013.3
20260901193205 93 200 4.3 7.0 0.00 0.00 0.00 67 1013.4
20260901192705 92 213 5.2 7.8 0.00 0.00 0.00 67 1013.4
20260901192205 92 203 6.1 7.8 0.00 0.00 0.00 67 1013.4
20260901191205 92 205 4.3 7.0 0.00 0.00 0.00 71 1013.4
20260901190205 91 210 6.1 8.7 0.00 0.00 0.00 69 1013.4
20260901185706 91 197 4.3 7.0 0.00 0.00 0.00 69 1013.5
20260901184705 90 207 4.3 6.1 0.00 0.00 0.00 72 1013.4